Hourly Weather Alleppey

Today, 3 December, Thursday

Time Temperature Precipitation Wind Pressure Humidity
00:00 +26°C° 0 mm 1 mps 756 mmHg 79%
01:00 +26°C° 0 mm 1 mps 756 mmHg 79%
02:00 +26°C° 0 mm 2 mps 756 mmHg 80%
03:00 +26°C° 0 mm 2 mps 756 mmHg 82%
04:00 +25°C° 0 mm 2 mps 756 mmHg 84%
05:00 +26°C° 0 mm 1 mps 756 mmHg 81%
06:00 +25°C° 0.1 mm 2 mps 756 mmHg 84%
07:00 +25°C° 0.1 mm 2 mps 757 mmHg 87%
08:00 +25°C° 0.1 mm 3 mps 757 mmHg 89%
09:00 +25°C° 0 mm 3 mps 757 mmHg 88%
10:00 +25°C° 0 mm 4 mps 757 mmHg 87%
11:00 +26°C° 0 mm 4 mps 757 mmHg 89%
12:00 +26°C° 0 mm 5 mps 757 mmHg 87%
13:00 +26°C° 0 mm 5 mps 756 mmHg 86%
14:00 +26°C° 0 mm 5 mps 755 mmHg 85%
15:00 +26°C° 0 mm 5 mps 755 mmHg 84%
16:00 +26°C° 0 mm 5 mps 755 mmHg 84%
17:00 +26°C° 0 mm 5 mps 755 mmHg 85%
18:00 +26°C° 0 mm 5 mps 756 mmHg 86%
19:00 +26°C° 0 mm 5 mps 756 mmHg 86%
20:00 +26°C° 0 mm 5 mps 756 mmHg 87%
21:00 +26°C° 0.1 mm 5 mps 756 mmHg 89%
22:00 +25°C° 0.1 mm 4 mps 756 mmHg 91%
23:00 +25°C° 0.1 mm 4 mps 756 mmHg 92%

Tomorrow, 4 December, Friday

Time Temperature Precipitation Wind Pressure Humidity
00:00 +25°C° 0.2 mm 4 mps 756 mmHg 93%
01:00 +25°C° 0.2 mm 4 mps 755 mmHg 93%
02:00 +25°C° 0.2 mm 4 mps 755 mmHg 94%
03:00 +25°C° 0.2 mm 4 mps 755 mmHg 94%
04:00 +24°C° 0.2 mm 3 mps 755 mmHg 94%
05:00 +24°C° 0.2 mm 3 mps 755 mmHg 94%
06:00 +25°C° 0.2 mm 2 mps 755 mmHg 93%
07:00 +25°C° 0.2 mm 2 mps 756 mmHg 92%
08:00 +26°C° 0.2 mm 2 mps 756 mmHg 91%
09:00 +26°C° 0.1 mm 2 mps 756 mmHg 90%
10:00 +26°C° 0.1 mm 2 mps 756 mmHg 90%
11:00 +26°C° 0.1 mm 2 mps 756 mmHg 89%
12:00 +27°C° 0 mm 2 mps 755 mmHg 87%
13:00 +27°C° 0 mm 1 mps 755 mmHg 85%
14:00 +28°C° 0 mm 1 mps 754 mmHg 83%
15:00 +28°C° 0.1 mm 1 mps 754 mmHg 85%
16:00 +27°C° 0.1 mm 1 mps 754 mmHg 87%
17:00 +27°C° 0.1 mm 1 mps 754 mmHg 89%
18:00 +27°C° 0 mm 1 mps 754 mmHg 90%
19:00 +26°C° 0 mm 1 mps 755 mmHg 91%
20:00 +26°C° 0 mm 1 mps 755 mmHg 92%
21:00 +26°C° 0 mm 2 mps 756 mmHg 92%
22:00 +26°C° 0 mm 2 mps 756 mmHg 93%
23:00 +26°C° 0 mm 2 mps 756 mmHg 93%

Day after tomorrow, 5 December, Saturday

Time Temperature Precipitation Wind Pressure Humidity
00:00 +26°C° 0.3 mm 2 mps 755 mmHg 94%
01:00 +25°C° 0.3 mm 2 mps 754 mmHg 94%
02:00 +25°C° 0.3 mm 2 mps 754 mmHg 95%
03:00 +25°C° 0.1 mm 2 mps 754 mmHg 95%
04:00 +25°C° 0.1 mm 2 mps 754 mmHg 95%
05:00 +25°C° 0.1 mm 2 mps 754 mmHg 96%
06:00 +26°C° 0 mm 2 mps 755 mmHg 94%
07:00 +26°C° 0 mm 2 mps 755 mmHg 92%
08:00 +27°C° 0 mm 2 mps 756 mmHg 91%
09:00 +27°C° 0 mm 2 mps 756 mmHg 87%
10:00 +28°C° 0 mm 2 mps 756 mmHg 84%
11:00 +29°C° 0 mm 1 mps 756 mmHg 80%
12:00 +29°C° 0 mm 2 mps 755 mmHg 77%
13:00 +30°C° 0 mm 2 mps 754 mmHg 74%
14:00 +30°C° 0 mm 2 mps 753 mmHg 71%
15:00 +30°C° 0.2 mm 2 mps 754 mmHg 74%
16:00 +29°C° 0.2 mm 2 mps 754 mmHg 77%
17:00 +29°C° 0.2 mm 2 mps 754 mmHg 80%
18:00 +28°C° 0 mm 3 mps 754 mmHg 83%
19:00 +27°C° 0.1 mm 3 mps 755 mmHg 85%
20:00 +27°C° 0.1 mm 3 mps 756 mmHg 87%
21:00 +26°C° 0.3 mm 3 mps 756 mmHg 88%
22:00 +26°C° 0.3 mm 3 mps 756 mmHg 89%
23:00 +26°C° 0.3 mm 3 mps 756 mmHg 90%

6 December, Sunday

Time Temperature Precipitation Wind Pressure Humidity
00:00 +26°C° 0.2 mm 3 mps 756 mmHg 91%
01:00 +26°C° 0.2 mm 3 mps 755 mmHg 93%
02:00 +26°C° 0.2 mm 3 mps 755 mmHg 94%
03:00 +25°C° 0.1 mm 3 mps 755 mmHg 94%
04:00 +25°C° 0.1 mm 3 mps 755 mmHg 95%
05:00 +25°C° 0.1 mm 3 mps 755 mmHg 95%
06:00 +26°C° 0.1 mm 3 mps 756 mmHg 92%
07:00 +27°C° 0.1 mm 3 mps 757 mmHg 89%
08:00 +28°C° 0.1 mm 3 mps 757 mmHg 86%
09:00 +30°C° 0 mm 3 mps 757 mmHg 77%
10:00 +31°C° 0 mm 3 mps 757 mmHg 68%
11:00 +34°C° 0 mm 2 mps 757 mmHg 59%
12:00 +34°C° 0.9 mm 3 mps 756 mmHg 65%
13:00 +33°C° 0.9 mm 3 mps 755 mmHg 71%
14:00 +32°C° 0.9 mm 4 mps 755 mmHg 77%
15:00 +30°C° 0.7 mm 3 mps 755 mmHg 81%
16:00 +29°C° 0.7 mm 2 mps 755 mmHg 85%
17:00 +27°C° 0.7 mm 2 mps 755 mmHg 89%
18:00 +27°C° 1 mm 1 mps 756 mmHg 90%
19:00 +27°C° 1 mm 1 mps 757 mmHg 90%
20:00 +25°C° 1 mm 0 mps 757 mmHg 91%
21:00 +26°C° 1.2 mm 1 mps 757 mmHg 92%
22:00 +26°C° 1.2 mm 2 mps 757 mmHg 94%
23:00 +26°C° 1.2 mm 2 mps 757 mmHg 96%

7 December, Monday

Time Temperature Precipitation Wind Pressure Humidity
00:00 +26°C° 1.1 mm 2 mps 757 mmHg 96%
01:00 +25°C° 1.1 mm 1 mps 757 mmHg 95%
02:00 +25°C° 1.1 mm 1 mps 756 mmHg 95%
03:00 +25°C° 0.7 mm 1 mps 756 mmHg 95%
04:00 +25°C° 0.7 mm 1 mps 757 mmHg 95%
05:00 +25°C° 0.7 mm 1 mps 757 mmHg 96%
06:00 +26°C° 0.3 mm 2 mps 757 mmHg 94%
07:00 +26°C° 0.3 mm 3 mps 758 mmHg 93%
08:00 +27°C° 0.3 mm 3 mps 758 mmHg 91%
09:00 +28°C° 0 mm 3 mps 758 mmHg 86%
10:00 +29°C° 0 mm 3 mps 758 mmHg 80%
11:00 +30°C° 0 mm 2 mps 758 mmHg 75%
12:00 +31°C° 0 mm 2 mps 757 mmHg 70%
13:00 +32°C° 0 mm 2 mps 757 mmHg 66%
14:00 +34°C° 0 mm 2 mps 756 mmHg 62%
15:00 +31°C° 0.3 mm 2 mps 756 mmHg 68%
16:00 +30°C° 0.3 mm 2 mps 756 mmHg 75%
17:00 +29°C° 0.3 mm 2 mps 756 mmHg 82%
18:00 +28°C° 0.7 mm 2 mps 757 mmHg 85%
19:00 +28°C° 0.7 mm 1 mps 758 mmHg 87%
20:00 +27°C° 0.7 mm 1 mps 758 mmHg 90%
21:00 +27°C° 0.5 mm 1 mps 758 mmHg 91%
22:00 +26°C° 0.5 mm 1 mps 759 mmHg 92%
23:00 +26°C° 0.5 mm 1 mps 759 mmHg 93%

8 December, Tuesday

Time Temperature Precipitation Wind Pressure Humidity
00:00 +26°C° 0.4 mm 2 mps 758 mmHg 94%
01:00 +26°C° 0.4 mm 2 mps 758 mmHg 94%
02:00 +25°C° 0.4 mm 2 mps 757 mmHg 95%
03:00 +25°C° 0.2 mm 2 mps 757 mmHg 95%
04:00 +25°C° 0.2 mm 2 mps 757 mmHg 94%
05:00 +25°C° 0.2 mm 2 mps 757 mmHg 94%
06:00 +26°C° 0 mm 2 mps 758 mmHg 91%
07:00 +27°C° 0 mm 2 mps 758 mmHg 87%
08:00 +28°C° 0 mm 2 mps 759 mmHg 84%
09:00 +30°C° 0 mm 2 mps 759 mmHg 73%
10:00 +33°C° 0 mm 1 mps 758 mmHg 63%
11:00 +35°C° 0 mm 1 mps 758 mmHg 53%
12:00 +35°C° 0 mm 2 mps 757 mmHg 55%
13:00 +35°C° 0 mm 2 mps 757 mmHg 57%
14:00 +34°C° 0 mm 3 mps 756 mmHg 59%
15:00 +33°C° 1 mm 3 mps 756 mmHg 68%
16:00 +30°C° 1 mm 3 mps 756 mmHg 77%
17:00 +29°C° 1 mm 3 mps 756 mmHg 86%
18:00 +28°C° 0.7 mm 3 mps 757 mmHg 87%
19:00 +28°C° 0.7 mm 2 mps 758 mmHg 88%
20:00 +27°C° 0.7 mm 2 mps 758 mmHg 89%
21:00 +27°C° 0.1 mm 1 mps 758 mmHg 90%
22:00 +26°C° 0.1 mm 1 mps 758 mmHg 92%
23:00 +26°C° 0.1 mm 1 mps 759 mmHg 93%
Show more